GW5223 Weather Reports


time (UTC)temp
C
wind
direction
speed
KPH
gust
KPH
rain 1hr
cm
rain 24hr
cm
rain mn
cm
humidity
%
barometer
mb
20260508043805 10 191 0.0 0.0 0.00 0.30 0.00 86 1009.4
20260508043304 10 191 0.0 0.0 0.00 0.30 0.00 86 1009.5
20260508042804 10 191 0.0 0.0 0.00 0.30 0.00 86 1009.6
20260508042307 10 191 0.0 1.6 0.00 0.30 0.00 87 1009.5
20260508041804 10 191 1.6 1.6 0.00 0.30 0.00 86 1009.6
20260508041304 10 186 0.0 0.0 0.00 0.30 0.00 86 1009.3
20260508040905 10 186 0.0 0.0 0.00 0.30 0.00 86 1009.3
20260508040306 10 186 0.0 0.0 0.00 0.30 0.00 86 1009.1
20260508035804 10 186 0.0 0.0 0.00 0.30 0.30 86 1009.2
20260508035306 10 186 0.0 0.0 0.00 0.30 0.30 86 1009.1
20260508034806 10 186 0.0 0.0 0.00 0.30 0.30 86 1009.1
20260508034304 10 186 0.0 0.0 0.00 0.30 0.30 85 1009.2
20260508033805 10 186 0.0 0.0 0.00 0.30 0.30 85 1009.1
20260508033304 10 186 0.0 0.0 0.00 0.30 0.30 85 1009.0
20260508032806 10 186 0.0 0.0 0.00 0.30 0.30 85 1009.1
20260508031804 10 186 0.0 0.0 0.00 0.30 0.30 84 1009.0
20260508031305 10 186 0.0 0.0 0.00 0.30 0.30 83 1009.1
20260508030804 10 186 0.0 0.0 0.00 0.30 0.30 83 1009.2
20260508030304 10 186 0.0 0.0 0.00 0.30 0.30 82 1009.2
20260508025805 11 186 0.0 0.0 0.00 0.30 0.30 82 1009.2
20260508025306 11 186 0.0 0.0 0.00 0.30 0.30 82 1009.2
20260508024805 11 186 0.0 0.0 0.00 0.30 0.30 82 1009.1
20260508024305 11 186 0.0 0.0 0.00 0.30 0.30 82 1009.1
20260508023804 11 186 0.0 1.6 0.00 0.30 0.30 81 1009.1
20260508023304 11 187 0.0 1.6 0.00 0.30 0.30 80 1009.0
20260508022804 11 188 0.0 0.0 0.00 0.33 0.30 80 1009.0
20260508022307 11 188 0.0 0.0 0.00 0.33 0.30 79 1009.2
20260508021804 12 187 0.0 1.6 0.00 0.33 0.30 79 1009.2
20260508021304 12 188 0.0 1.6 0.00 0.36 0.30 78 1009.2
20260508020804 12 188 0.0 3.2 0.00 0.41 0.30 78 1009.2
20260508020304 12 187 0.0 3.2 0.00 0.43 0.30 77 1009.2
20260508015804 12 187 0.0 3.2 0.00 0.48 0.30 76 1009.1
20260508015306 12 186 1.6 3.2 0.00 0.56 0.30 76 1009.1
20260508014804 12 171 0.0 3.2 0.00 0.58 0.30 74 1009.0
20260508014304 12 173 0.0 1.6 0.00 0.58 0.30 72 1009.0
20260508013804 12 172 0.0 1.6 0.00 0.58 0.30 72 1009.0
20260508013304 12 173 0.0 3.2 0.00 0.58 0.30 71 1009.0
20260508012804 12 172 1.6 4.8 0.00 0.58 0.30 70 1008.9
20260508012307 12 136 1.6 9.7 0.00 0.58 0.30 68 1008.8
20260508011804 12 176 1.6 4.8 0.00 0.58 0.30 66 1008.9
20260508011304 12 206 1.6 4.8 0.00 0.58 0.30 61 1008.9
20260508010804 12 242 1.6 4.8 0.00 0.58 0.30 60 1008.9
20260508010305 12 68 0.0 3.2 0.00 0.58 0.30 58 1008.8
20260508005804 12 67 0.0 0.0 0.00 0.58 0.30 56 1008.7
20260508005306 12 67 0.0 0.0 0.00 0.58 0.30 54 1008.6
20260508004804 13 67 0.0 0.0 0.00 0.58 0.30 54 1008.6
20260508004305 13 67 0.0 0.0 0.00 0.58 0.30 52 1008.4
20260508003804 13 67 0.0 0.0 0.00 0.58 0.30 53 1008.5
20260508002804 14 67 0.0 0.0 0.00 0.58 0.30 54 1008.3
20260508002307 14 67 0.0 0.0 0.00 0.58 0.30 55 1008.3
20260508000804 15 67 0.0 0.0 0.00 0.58 0.30 53 1008.0
20260508000305 15 67 0.0 0.0 0.00 0.58 0.30 52 1008.0
20260507235805 15 67 0.0 0.0 0.00 0.58 0.30 50 1007.9
20260507235306 15 67 0.0 0.0 0.00 0.58 0.30 50 1007.9
20260507234805 16 67 0.0 0.0 0.00 0.58 0.30 52 1007.9
20260507234304 16 67 0.0 0.0 0.00 0.58 0.30 50 1007.8
20260507232805 16 67 0.0 0.0 0.00 0.58 0.30 47 1007.7
20260507232306 16 67 0.0 0.0 0.00 0.58 0.30 48 1007.7
20260507231805 17 67 0.0 0.0 0.00 0.58 0.30 46 1007.6
20260507230804 17 67 0.0 0.0 0.00 0.58 0.30 44 1007.5
20260507230306 17 67 0.0 0.0 0.00 0.58 0.30 45 1007.5
20260507225804 17 67 0.0 1.6 0.00 0.58 0.30 43 1007.5
20260507225306 17 67 0.0 0.0 0.00 0.58 0.30 40 1007.6
20260507224804 18 66 0.0 1.6 0.00 0.58 0.30 39 1007.5
20260507224305 18 74 1.6 4.8 0.00 0.58 0.30 38 1007.5
20260507223806 18 59 1.6 4.8 0.00 0.58 0.30 41 1007.5
20260507223304 18 310 1.6 3.2 0.00 0.58 0.30 37 1007.6
20260507222804 18 311 1.6 4.8 0.00 0.58 0.30 35 1007.5
20260507222306 18 41 1.6 4.8 0.00 0.58 0.30 37 1007.6
20260507221804 18 294 1.6 3.2 0.00 0.58 0.30 36 1007.6
20260507221303 18 265 1.6 4.8 0.00 0.58 0.30 35 1007.6
20260507215804 18 340 1.6 4.8 0.00 0.58 0.30 35 1007.6
20260507215307 18 196 1.6 4.8 0.00 0.58 0.30 34 1007.6
20260507214804 18 292 0.0 1.6 0.00 0.58 0.30 35 1007.7
20260507214305 18 306 1.6 8.0 0.00 0.58 0.30 32 1007.8
20260507213803 18 313 1.6 4.8 0.00 0.58 0.30 36 1007.8
20260507213304 18 310 3.2 11.3 0.00 0.58 0.30 33 1007.8
20260507212804 19 309 3.2 4.8 0.00 0.58 0.30 35 1007.7
20260507212307 19 309 3.2 4.8 0.00 0.58 0.30 34 1007.6
20260507211804 18 354 3.2 4.8 0.00 0.58 0.30 33 1007.6
20260507211304 19 309 1.6 4.8 0.00 0.58 0.30 33 1007.6
20260507210304 20 337 1.6 9.7 0.00 0.58 0.30 36 1007.5
20260507205804 20 342 1.6 4.8 0.00 0.58 0.30 34 1007.5
20260507205306 19 231 1.6 4.8 0.00 0.58 0.30 34 1007.5
20260507204803 19 249 1.6 8.0 0.00 0.58 0.30 36 1007.5
20260507204304 19 355 3.2 8.0 0.00 0.58 0.30 36 1007.5
20260507203804 19 326 1.6 4.8 0.00 0.58 0.30 38 1007.5
20260507202804 18 310 1.6 8.0 0.00 0.58 0.30 34 1007.5
20260507202307 18 319 1.6 11.3 0.00 0.58 0.30 33 1007.6
20260507201804 19 326 4.8 11.3 0.00 0.58 0.30 35 1007.6
20260507201303 19 329 3.2 11.3 0.00 0.58 0.30 35 1007.7
20260507200804 19 306 1.6 8.0 0.00 0.58 0.30 34 1007.7
20260507195804 19 351 3.2 9.7 0.00 0.58 0.30 40 1007.8
20260507195306 19 289 3.2 8.0 0.00 0.58 0.30 37 1007.8
20260507194804 19 319 4.8 9.7 0.00 0.58 0.30 38 1007.9
20260507194305 19 37 3.2 4.8 0.00 0.58 0.30 36 1007.9
20260507193805 18 261 3.2 9.7 0.00 0.58 0.30 39 1008.0
20260507192805 18 47 3.2 8.0 0.00 0.58 0.30 39 1008.0
20260507192306 18 284 3.2 9.7 0.00 0.58 0.30 37 1008.1
20260507191304 18 19 8.0 16.1 0.00 0.58 0.30 36 1008.4
20260507190304 18 16 3.2 11.3 0.00 0.58 0.30 39 1008.4
20260507185804 18 271 1.6 3.2 0.00 0.58 0.30 40 1008.4
20260507185305 18 323 3.2 8.0 0.00 0.58 0.30 43 1008.5
20260507184804 18 18 1.6 4.8 0.00 0.58 0.30 42 1008.4
20260507184304 18 275 3.2 12.9 0.00 0.58 0.30 41 1008.6
20260507183805 18 248 4.8 11.3 0.00 0.58 0.30 41 1008.6
20260507182804 18 30 3.2 11.3 0.00 0.58 0.30 43 1008.8
20260507181304 17 285 3.2 8.0 0.00 0.58 0.30 44 1008.9
20260507180305 17 308 3.2 12.9 0.00 0.58 0.30 45 1009.0
20260507175804 17 326 4.8 16.1 0.00 0.58 0.30 40 1009.1
20260507175307 17 200 1.6 11.3 0.00 0.58 0.30 48 1009.1
20260507174304 17 303 4.8 14.5 0.00 0.58 0.30 43 1009.3
20260507173804 17 35 1.6 4.8 0.00 0.58 0.30 48 1009.4
20260507172804 17 330 4.8 9.7 0.00 0.58 0.30 45 1009.8
20260507172307 17 330 3.2 12.9 0.00 0.58 0.30 46 1009.8
20260507171304 17 196 3.2 8.0 0.00 0.58 0.30 47 1009.9
20260507165805 17 319 4.8 12.9 0.00 0.58 0.30 44 1010.1
20260507165306 17 280 3.2 8.0 0.00 0.58 0.30 45 1010.1
20260507164804 17 356 4.8 14.5 0.00 0.58 0.30 46 1010.2
20260507164304 17 327 4.8 11.3 0.00 0.58 0.30 49 1010.2
20260507163804 16 260 3.2 4.8 0.00 0.58 0.30 51 1010.3
20260507163304 16 13 3.2 11.3 0.00 0.58 0.30 50 1010.4
20260507162306 16 8 1.6 11.3 0.00 0.61 0.30 55 1010.4
20260507161804 16 11 3.2 8.0 0.00 0.61 0.30 51 1010.6
20260507161306 16 81 3.2 8.0 0.00 0.64 0.30 55 1010.5
20260507160804 16 16 3.2 8.0 0.00 0.64 0.30 53 1010.5
20260507160304 16 324 3.2 11.3 0.00 0.64 0.30 56 1010.6
20260507155804 15 306 3.2 9.7 0.00 0.66 0.30 54 1010.7
20260507155306 15 338 3.2 9.7 0.00 0.66 0.30 57 1010.8
20260507154804 15 349 3.2 9.7 0.00 0.66 0.30 60 1010.9
20260507154305 15 295 3.2 4.8 0.00 0.69 0.30 61 1011.0
20260507153304 14 274 3.2 11.3 0.00 0.69 0.30 61 1011.2
20260507152804 14 307 4.8 16.1 0.00 0.71 0.30 61 1011.1
20260507152306 14 152 1.6 8.0 0.00 0.71 0.30 64 1011.5
20260507151804 14 317 1.6 4.8 0.00 0.71 0.30 65 1011.5
20260507151306 13 279 1.6 8.0 0.00 0.71 0.30 64 1011.6
20260507150804 13 344 3.2 4.8 0.00 0.71 0.30 64 1011.5
20260507150304 13 10 1.6 4.8 0.00 0.71 0.30 67 1011.5
20260507145804 13 330 4.8 11.3 0.00 0.71 0.30 65 1011.4
20260507145306 13 256 3.2 8.0 0.00 0.71 0.30 66 1011.6
20260507144804 13 300 3.2 4.8 0.00 0.71 0.30 69 1011.6
20260507144304 13 305 3.2 8.0 0.00 0.71 0.30 70 1011.7
20260507143804 13 271 1.6 3.2 0.00 0.71 0.30 74 1011.7
20260507143304 12 284 3.2 4.8 0.00 0.71 0.30 70 1012.0
20260507142307 13 315 3.2 8.0 0.00 0.71 0.30 72 1011.9
20260507141804 13 280 3.2 8.0 0.00 0.71 0.30 75 1011.9
20260507141304 12 324 3.2 4.8 0.00 0.71 0.30 77 1011.9
20260507140804 12 331 1.6 3.2 0.00 0.71 0.30 78 1011.9
20260507140305 12 317 1.6 8.0 0.00 0.71 0.30 77 1011.9
20260507135306 12 233 3.2 9.7 0.00 0.71 0.30 79 1011.9
20260507134804 12 342 1.6 4.8 0.00 0.71 0.30 80 1011.9
20260507134304 12 307 3.2 4.8 0.00 0.71 0.30 81 1012.0
20260507133804 11 333 3.2 8.0 0.00 0.71 0.30 83 1012.0
20260507133304 11 280 1.6 4.8 0.00 0.71 0.30 84 1012.0
20260507132307 11 299 1.6 4.8 0.00 0.71 0.30 85 1011.8
20260507131804 11 342 1.6 8.0 0.00 0.71 0.30 86 1011.8
20260507131304 11 326 0.0 3.2 0.00 0.71 0.30 86 1011.8
20260507130804 10 311 1.6 3.2 0.00 0.71 0.30 86 1011.8
20260507130304 10 321 3.2 9.7 0.00 0.71 0.30 87 1012.0
20260507125804 10 320 1.6 4.8 0.00 0.71 0.30 87 1011.9
20260507124805 10 315 0.0 4.8 0.00 0.71 0.30 87 1011.9
20260507121804 10 319 1.6 4.8 0.00 0.71 0.30 88 1011.8
20260507121304 10 314 0.0 8.0 0.00 0.71 0.30 88 1011.8
20260507120804 10 306 1.6 4.8 0.00 0.71 0.30 88 1011.9
20260507120304 10 295 0.0 3.2 0.00 0.71 0.30 88 1011.9
20260507114803 10 265 1.6 3.2 0.00 0.71 0.30 88 1011.8
20260507114303 10 280 0.0 1.6 0.00 0.71 0.30 88 1011.7
20260507113304 10 281 0.0 1.6 0.00 0.71 0.30 88 1011.5
20260507112803 10 280 0.0 1.6 0.00 0.71 0.30 89 1011.5
20260507112306 10 281 0.0 1.6 0.00 0.71 0.30 89 1011.5
20260507111803 10 281 0.0 1.6 0.00 0.71 0.30 89 1011.4
20260507110304 10 286 0.0 1.6 0.00 0.71 0.30 88 1011.2
20260507105306 10 285 0.0 0.0 0.00 0.71 0.30 89 1010.9
20260507104803 10 285 0.0 0.0 0.00 0.71 0.30 89 1011.0
20260507104304 10 285 0.0 0.0 0.00 0.71 0.30 89 1011.0
20260507103804 10 285 0.0 0.0 0.00 0.71 0.30 89 1011.0
20260507103305 10 285 0.0 0.0 0.00 0.71 0.30 88 1010.9
20260507102803 10 285 0.0 0.0 0.00 0.71 0.30 88 1010.7
20260507102306 10 285 0.0 0.0 0.00 0.71 0.30 88 1010.7
20260507101806 10 285 0.0 0.0 0.00 0.71 0.30 88 1010.5
20260507101304 10 285 0.0 0.0 0.00 0.71 0.30 88 1010.5
20260507100804 10 285 0.0 0.0 0.00 0.71 0.30 88 1010.3
20260507095804 10 285 0.0 0.0 0.00 0.71 0.30 88 1010.4
20260507095306 10 285 0.0 1.6 0.00 0.71 0.30 88 1010.5
20260507094803 10 286 0.0 0.0 0.00 0.71 0.30 88 1010.4
20260507094305 10 286 0.0 0.0 0.00 0.71 0.30 88 1010.4
20260507093804 10 286 0.0 0.0 0.03 0.71 0.30 88 1010.3
20260507091804 10 286 0.0 0.0 0.03 0.71 0.30 88 1010.2
20260507091304 10 286 0.0 0.0 0.03 0.71 0.30 88 1010.1
20260507090804 10 286 0.0 1.6 0.03 0.71 0.30 88 1010.2
20260507090304 10 294 0.0 0.0 0.03 0.71 0.30 88 1010.1
20260507085804 10 294 0.0 3.2 0.03 0.71 0.30 88 1010.0
20260507085306 10 294 0.0 4.8 0.03 0.71 0.30 88 1010.0
20260507084804 10 298 0.0 1.6 0.05 0.71 0.30 88 1010.0
20260507084304 10 298 0.0 3.2 0.05 0.71 0.30 88 1010.0
20260507083804 10 298 0.0 1.6 0.05 0.69 0.28 88 1010.0
20260507083304 10 297 0.0 3.2 0.05 0.69 0.28 88 1009.9
20260507082804 10 323 0.0 3.2 0.05 0.69 0.28 88 1010.0
20260507082306 10 328 0.0 3.2 0.08 0.69 0.28 88 1009.9
20260507081804 10 328 0.0 3.2 0.08 0.69 0.28 88 1009.9
20260507081304 10 330 0.0 3.2 0.08 0.69 0.28 88 1010.1
20260507080803 10 317 3.2 8.0 0.08 0.69 0.28 88 1010.2
20260507080305 10 294 0.0 3.2 0.08 0.69 0.28 88 1010.1
20260507075307 10 310 0.0 4.8 0.08 0.69 0.28 88 1010.4
20260507074804 10 315 1.6 4.8 0.05 0.66 0.25 88 1010.5
20260507073304 10 316 1.6 8.0 0.05 0.64 0.23 88 1010.2
20260507072804 10 312 1.6 4.8 0.08 0.64 0.23 88 1010.5
20260507072306 10 306 0.0 4.8 0.08 0.61 0.20 88 1010.5
20260507070804 11 323 1.6 8.0 0.08 0.61 0.20 88 1010.2
20260507070303 11 313 1.6 9.7 0.08 0.61 0.20 88 1010.2
20260507065804 11 317 3.2 9.7 0.10 0.61 0.20 88 1010.1
20260507065306 11 322 3.2 9.7 0.10 0.61 0.20 88 1010.0
20260507064804 11 357 4.8 14.5 0.10 0.61 0.20 88 1010.1
20260507064304 11 332 1.6 4.8 0.10 0.58 0.18 88 1010.0
20260507063803 11 325 0.0 1.6 0.13 0.58 0.18 88 1010.3
20260507063304 11 327 0.0 1.6 0.15 0.58 0.18 88 1009.9
20260507062306 11 254 0.0 3.2 0.13 0.53 0.13 88 1010.5
20260507061805 11 286 3.2 4.8 0.13 0.53 0.13 87 1010.1
20260507061303 11 308 1.6 4.8 0.13 0.53 0.13 87 1009.8
20260507060804 11 311 1.6 4.8 0.13 0.53 0.13 87 1009.7
20260507060304 11 311 1.6 4.8 0.13 0.53 0.13 87 1010.2
20260507055804 11 321 3.2 4.8 0.10 0.51 0.10 86 1010.1
20260507055306 11 309 1.6 4.8 0.10 0.51 0.10 86 1010.0
20260507054804 12 328 1.6 8.0 0.10 0.51 0.10 85 1009.7
20260507054305 12 246 0.0 3.2 0.08 0.48 0.08 85 1010.0
20260507053804 12 297 1.6 4.8 0.05 0.46 0.05 85 1010.6
20260507053304 12 277 1.6 8.0 0.03 0.43 0.03 85 1010.0
20260507052804 12 331 1.6 4.8 0.03 0.43 0.03 85 1009.8
20260507052306 13 355 1.6 3.2 0.00 0.41 0.00 85 1009.1
20260507051804 13 49 0.0 3.2 0.00 0.41 0.00 85 1008.9
20260507051305 13 308 1.6 4.8 0.00 0.41 0.00 85 1009.2
20260507050804 13 303 1.6 8.0 0.00 0.41 0.00 85 1009.2
20260507050304 13 293 3.2 8.0 0.00 0.41 0.00 86 1009.1
20260507045306 13 314 1.6 3.2 0.00 0.41 0.00 86 1008.9
20260507044804 13 309 0.0 3.2 0.00 0.41 0.00 86 1008.9
20260507044304 13 307 0.0 3.2 0.00 0.41 0.00 86 1008.9